| time (UTC) | temp F | wind direction | speed MPH | gust MPH | rain 1hr in | rain 24hr in | rain mn in | humidity % | barometer mb |
| 20260906093028 | 88 | 52 | 2.0 | 6.0 | 0.00 | 0.00 | 0.00 | 26 | 1019.8 |
| 20260906092028 | 88 | 53 | 1.0 | 3.0 | 0.00 | 0.00 | 0.00 | 28 | 1019.8 |
| 20260906091512 | 87 | 33 | 3.0 | 8.0 | 0.00 | 0.00 | 0.00 | 29 | 1019.8 |
| 20260906091026 | 87 | 89 | 2.0 | 6.0 | 0.00 | 0.00 | 0.00 | 30 | 1019.8 |
| 20260906085512 | 87 | 110 | 2.0 | 7.0 | 0.00 | 0.00 | 0.00 | 30 | 1019.9 |
| 20260906085026 | 86 | 236 | 1.0 | 5.0 | 0.00 | 0.00 | 0.00 | 32 | 1020.0 |
| 20260906084029 | 86 | 239 | 2.0 | 6.0 | 0.00 | 0.00 | 0.00 | 31 | 1019.9 |
| 20260906083512 | 86 | 193 | 1.0 | 3.0 | 0.00 | 0.00 | 0.00 | 32 | 1019.9 |
| 20260906082029 | 85 | 140 | 3.0 | 7.0 | 0.00 | 0.00 | 0.00 | 35 | 1019.8 |
| 20260906080018 | 84 | 157 | 2.0 | 6.0 | 0.00 | 0.00 | 0.00 | 38 | 1019.6 |
| 20260906075516 | 83 | 129 | 2.0 | 6.0 | 0.00 | 0.00 | 0.00 | 40 | 1019.5 |
| 20260906074514 | 83 | 193 | 2.0 | 3.0 | 0.00 | 0.00 | 0.00 | 42 | 1019.5 |
| 20260906073028 | 82 | 98 | 2.0 | 5.0 | 0.00 | 0.00 | 0.00 | 44 | 1019.3 |
| 20260906072511 | 81 | 225 | 1.0 | 5.0 | 0.00 | 0.00 | 0.00 | 45 | 1019.2 |
| 20260906072026 | 81 | 132 | 2.0 | 3.0 | 0.00 | 0.00 | 0.00 | 44 | 1019.2 |
| 20260906071512 | 81 | 119 | 2.0 | 3.0 | 0.00 | 0.00 | 0.00 | 45 | 1019.1 |
| 20260906070011 | 81 | 120 | 0.0 | 2.0 | 0.00 | 0.00 | 0.00 | 44 | 1019.1 |
| 20260906065512 | 80 | 109 | 2.0 | 5.0 | 0.00 | 0.00 | 0.00 | 45 | 1019.1 |
| 20260906065030 | 80 | 185 | 1.0 | 3.0 | 0.00 | 0.00 | 0.00 | 45 | 1019.0 |
| 20260906064512 | 80 | 151 | 1.0 | 3.0 | 0.00 | 0.00 | 0.00 | 45 | 1019.1 |
| 20260906063513 | 80 | 118 | 1.0 | 2.0 | 0.00 | 0.00 | 0.00 | 45 | 1018.9 |
| 20260906062512 | 79 | 135 | 0.0 | 1.0 | 0.00 | 0.00 | 0.00 | 45 | 1018.9 |
| 20260906062029 | 79 | 178 | 0.0 | 0.0 | 0.00 | 0.00 | 0.00 | 45 | 1019.0 |
| 20260906054511 | 75 | 266 | 0.0 | 1.0 | 0.00 | 0.00 | 0.00 | 50 | 1018.6 |
| 20260906054029 | 75 | 266 | 0.0 | 1.0 | 0.00 | 0.00 | 0.00 | 51 | 1018.6 |
| 20260906053511 | 75 | 266 | 0.0 | 2.0 | 0.00 | 0.00 | 0.00 | 51 | 1018.5 |
| 20260906050512 | 72 | 274 | 0.0 | 2.0 | 0.00 | 0.00 | 0.00 | 55 | 1018.4 |
| 20260906050012 | 73 | 294 | 2.0 | 3.0 | 0.00 | 0.00 | 0.00 | 55 | 1018.4 |
| 20260906044513 | 72 | 257 | 1.0 | 2.0 | 0.00 | 0.00 | 0.00 | 57 | 1018.4 |
| 20260906044029 | 72 | 253 | 1.0 | 2.0 | 0.00 | 0.00 | 0.00 | 57 | 1018.4 |
| 20260906043511 | 72 | 257 | 1.0 | 2.0 | 0.00 | 0.00 | 0.00 | 57 | 1018.4 |
| 20260906042026 | 72 | 301 | 1.0 | 2.0 | 0.00 | 0.00 | 0.00 | 61 | 1018.4 |
| 20260906040511 | 72 | 291 | 0.0 | 2.0 | 0.00 | 0.00 | 0.00 | 61 | 1018.4 |
| 20260906040012 | 72 | 291 | 0.0 | 0.0 | 0.00 | 0.00 | 0.00 | 61 | 1018.4 |
| 20260906035513 | 72 | 291 | 0.0 | 2.0 | 0.00 | 0.00 | 0.00 | 61 | 1018.4 |
| 20260906035019 | 72 | 291 | 1.0 | 2.0 | 0.00 | 0.00 | 0.00 | 61 | 1018.4 |
| 20260906033510 | 72 | 293 | 0.0 | 2.0 | 0.00 | 0.00 | 0.00 | 61 | 1018.3 |
| 20260906033019 | 72 | 296 | 1.0 | 3.0 | 0.00 | 0.00 | 0.00 | 61 | 1018.2 |
| 20260906032512 | 72 | 276 | 1.0 | 2.0 | 0.00 | 0.00 | 0.00 | 61 | 1018.2 |
| 20260906031020 | 72 | 274 | 2.0 | 3.0 | 0.00 | 0.00 | 0.00 | 61 | 1018.3 |
| 20260906030511 | 72 | 274 | 1.0 | 3.0 | 0.00 | 0.00 | 0.00 | 61 | 1018.3 |
| 20260906030011 | 72 | 274 | 1.0 | 3.0 | 0.00 | 0.00 | 0.00 | 61 | 1018.4 |
| 20260906024510 | 72 | 295 | 2.0 | 3.0 | 0.00 | 0.00 | 0.00 | 62 | 1018.4 |
| 20260906021019 | 72 | 307 | 1.0 | 2.0 | 0.00 | 0.00 | 0.00 | 62 | 1018.4 |
| 20260906014510 | 72 | 332 | 1.0 | 2.0 | 0.00 | 0.00 | 0.00 | 62 | 1018.6 |
| 20260906012018 | 73 | 330 | 0.0 | 0.0 | 0.00 | 0.00 | 0.00 | 60 | 1018.7 |
| 20260906011510 | 73 | 330 | 0.0 | 2.0 | 0.00 | 0.00 | 0.00 | 61 | 1018.7 |
| 20260906011019 | 73 | 330 | 0.0 | 1.0 | 0.00 | 0.00 | 0.00 | 60 | 1018.7 |
| 20260906010012 | 73 | 48 | 0.0 | 0.0 | 0.00 | 0.00 | 0.00 | 60 | 1018.8 |
| 20260906005511 | 73 | 48 | 0.0 | 0.0 | 0.00 | 0.00 | 0.00 | 60 | 1018.8 |
| 20260906003512 | 73 | 63 | 0.0 | 1.0 | 0.00 | 0.00 | 0.00 | 60 | 1018.8 |
| 20260906003021 | 73 | 55 | 0.0 | 1.0 | 0.00 | 0.00 | 0.00 | 59 | 1018.8 |
| 20260906002512 | 73 | 55 | 1.0 | 2.0 | 0.00 | 0.00 | 0.00 | 59 | 1018.8 |
| 20260906002021 | 74 | 59 | 1.0 | 3.0 | 0.00 | 0.00 | 0.00 | 59 | 1018.7 |
| 20260906000012 | 74 | 44 | 1.0 | 2.0 | 0.00 | 0.00 | 0.00 | 58 | 1018.8 |
| 20260905235021 | 74 | 271 | 1.0 | 2.0 | 0.00 | 0.00 | 0.00 | 58 | 1018.9 |
| 20260905234021 | 74 | 271 | 1.0 | 1.0 | 0.00 | 0.00 | 0.00 | 58 | 1019.0 |
| 20260905233513 | 74 | 271 | 1.0 | 2.0 | 0.00 | 0.00 | 0.00 | 58 | 1019.0 |
| 20260905233020 | 74 | 245 | 1.0 | 2.0 | 0.00 | 0.00 | 0.00 | 58 | 1019.0 |
| 20260905232512 | 74 | 257 | 2.0 | 3.0 | 0.00 | 0.00 | 0.00 | 57 | 1019.0 |
| 20260905231512 | 74 | 314 | 1.0 | 2.0 | 0.00 | 0.00 | 0.00 | 57 | 1019.1 |
| 20260905230512 | 74 | 212 | 1.0 | 2.0 | 0.00 | 0.00 | 0.00 | 58 | 1019.2 |
| 20260905230012 | 74 | 349 | 0.0 | 1.0 | 0.00 | 0.00 | 0.00 | 57 | 1019.1 |
| 20260905225020 | 74 | 349 | 0.0 | 1.0 | 0.00 | 0.00 | 0.00 | 57 | 1019.1 |
| 20260905223512 | 74 | 314 | 0.0 | 1.0 | 0.00 | 0.00 | 0.00 | 57 | 1019.2 |
| 20260905222512 | 75 | 314 | 0.0 | 1.0 | 0.00 | 0.00 | 0.00 | 57 | 1019.1 |
| 20260905222021 | 75 | 314 | 1.0 | 2.0 | 0.00 | 0.00 | 0.00 | 57 | 1019.1 |
| 20260905221512 | 74 | 251 | 0.0 | 2.0 | 0.00 | 0.00 | 0.00 | 55 | 1019.1 |
| 20260905215512 | 74 | 251 | 1.0 | 2.0 | 0.00 | 0.00 | 0.00 | 56 | 1019.2 |
| 20260905214020 | 74 | 271 | 2.0 | 3.0 | 0.00 | 0.00 | 0.00 | 57 | 1019.0 |
| 20260905213021 | 75 | 260 | 2.0 | 3.0 | 0.00 | 0.00 | 0.00 | 58 | 1019.1 |
| 20260905212512 | 75 | 266 | 2.0 | 3.0 | 0.00 | 0.00 | 0.00 | 58 | 1019.1 |
| 20260905212020 | 75 | 305 | 2.0 | 3.0 | 0.00 | 0.00 | 0.00 | 58 | 1019.0 |
| 20260905211512 | 75 | 316 | 2.0 | 3.0 | 0.00 | 0.00 | 0.00 | 57 | 1019.0 |
| 20260905211020 | 75 | 297 | 2.0 | 3.0 | 0.00 | 0.00 | 0.00 | 56 | 1019.0 |
| 20260905210513 | 75 | 312 | 3.0 | 3.0 | 0.00 | 0.00 | 0.00 | 57 | 1019.0 |
| 20260905210013 | 75 | 271 | 2.0 | 3.0 | 0.00 | 0.00 | 0.00 | 58 | 1018.9 |
| 20260905204513 | 75 | 284 | 2.0 | 3.0 | 0.00 | 0.00 | 0.00 | 62 | 1018.9 |
| 20260905203020 | 76 | 354 | 1.0 | 2.0 | 0.00 | 0.00 | 0.00 | 63 | 1019.0 |
| 20260905202021 | 76 | 359 | 1.0 | 3.0 | 0.00 | 0.00 | 0.00 | 63 | 1019.0 |
| 20260905201514 | 76 | 340 | 1.0 | 3.0 | 0.00 | 0.00 | 0.00 | 66 | 1019.0 |
| 20260905201020 | 76 | 340 | 0.0 | 2.0 | 0.00 | 0.00 | 0.00 | 66 | 1019.0 |
| 20260905194512 | 77 | 303 | 1.0 | 2.0 | 0.00 | 0.00 | 0.00 | 65 | 1019.1 |
| 20260905192514 | 77 | 319 | 1.0 | 6.0 | 0.00 | 0.00 | 0.00 | 67 | 1019.0 |
| 20260905192022 | 77 | 280 | 3.0 | 6.0 | 0.00 | 0.00 | 0.00 | 68 | 1019.0 |
| 20260905191513 | 77 | 287 | 2.0 | 7.0 | 0.00 | 0.00 | 0.00 | 68 | 1019.0 |
| 20260905191020 | 77 | 278 | 4.0 | 8.0 | 0.00 | 0.00 | 0.00 | 68 | 1018.9 |
| 20260905190012 | 77 | 286 | 3.0 | 7.0 | 0.00 | 0.00 | 0.00 | 68 | 1018.7 |
| 20260905185513 | 77 | 262 | 5.0 | 7.0 | 0.00 | 0.00 | 0.00 | 68 | 1018.7 |
| 20260905184513 | 77 | 248 | 5.0 | 9.0 | 0.00 | 0.00 | 0.00 | 67 | 1018.6 |
| 20260905184021 | 78 | 297 | 7.0 | 12.0 | 0.00 | 0.00 | 0.00 | 67 | 1018.5 |
| 20260905183512 | 78 | 269 | 7.0 | 12.0 | 0.00 | 0.00 | 0.00 | 66 | 1018.5 |
| 20260905183020 | 78 | 286 | 7.0 | 10.0 | 0.00 | 0.00 | 0.00 | 65 | 1018.4 |
| 20260905181514 | 78 | 247 | 6.0 | 12.0 | 0.00 | 0.00 | 0.00 | 61 | 1018.4 |
| 20260905180512 | 79 | 247 | 5.0 | 10.0 | 0.00 | 0.00 | 0.00 | 59 | 1018.3 |
| 20260905175028 | 80 | 249 | 5.0 | 10.0 | 0.00 | 0.00 | 0.00 | 55 | 1018.2 |
| 20260905174029 | 80 | 250 | 6.0 | 12.0 | 0.00 | 0.00 | 0.00 | 53 | 1018.1 |
| 20260905173028 | 81 | 223 | 6.0 | 12.0 | 0.00 | 0.00 | 0.00 | 51 | 1018.1 |
| 20260905171029 | 83 | 243 | 5.0 | 12.0 | 0.00 | 0.00 | 0.00 | 46 | 1018.2 |
| 20260905170512 | 83 | 266 | 7.0 | 12.0 | 0.00 | 0.00 | 0.00 | 45 | 1018.1 |
| 20260905165513 | 84 | 237 | 4.0 | 12.0 | 0.00 | 0.00 | 0.00 | 43 | 1018.2 |
| 20260905165028 | 84 | 214 | 9.0 | 14.0 | 0.00 | 0.00 | 0.00 | 42 | 1018.2 |
| 20260905163512 | 85 | 283 | 9.0 | 15.0 | 0.00 | 0.00 | 0.00 | 41 | 1018.2 |
| 20260905163029 | 85 | 297 | 8.0 | 15.0 | 0.00 | 0.00 | 0.00 | 40 | 1018.1 |
| 20260905162512 | 85 | 253 | 7.0 | 16.0 | 0.00 | 0.00 | 0.00 | 40 | 1018.2 |
| 20260905160012 | 86 | 290 | 10.0 | 16.0 | 0.00 | 0.00 | 0.00 | 38 | 1018.2 |
| 20260905154512 | 86 | 290 | 12.0 | 17.0 | 0.00 | 0.00 | 0.00 | 39 | 1018.0 |
| 20260905153513 | 87 | 255 | 9.0 | 17.0 | 0.00 | 0.00 | 0.00 | 39 | 1018.0 |
| 20260905153028 | 87 | 270 | 10.0 | 17.0 | 0.00 | 0.00 | 0.00 | 39 | 1018.0 |
| 20260905152028 | 86 | 258 | 10.0 | 20.0 | 0.00 | 0.00 | 0.00 | 40 | 1018.0 |
| 20260905151512 | 87 | 281 | 13.0 | 20.0 | 0.00 | 0.00 | 0.00 | 39 | 1018.1 |
| 20260905151030 | 87 | 214 | 12.0 | 20.0 | 0.00 | 0.00 | 0.00 | 39 | 1018.1 |
| 20260905150513 | 87 | 253 | 11.0 | 16.0 | 0.00 | 0.00 | 0.00 | 38 | 1017.9 |
| 20260905145513 | 87 | 266 | 10.0 | 18.0 | 0.00 | 0.00 | 0.00 | 37 | 1017.9 |
| 20260905144028 | 88 | 253 | 9.0 | 18.0 | 0.00 | 0.00 | 0.00 | 36 | 1017.9 |
| 20260905143512 | 88 | 280 | 10.0 | 18.0 | 0.00 | 0.00 | 0.00 | 36 | 1017.9 |
| 20260905142513 | 88 | 257 | 10.0 | 17.0 | 0.00 | 0.00 | 0.00 | 35 | 1017.9 |
| 20260905141030 | 88 | 266 | 10.0 | 21.0 | 0.00 | 0.00 | 0.00 | 34 | 1017.9 |
| 20260905140013 | 89 | 224 | 12.0 | 20.0 | 0.00 | 0.00 | 0.00 | 34 | 1018.0 |
| 20260905135028 | 89 | 241 | 12.0 | 18.0 | 0.00 | 0.00 | 0.00 | 33 | 1018.1 |
| 20260905134512 | 89 | 201 | 9.0 | 17.0 | 0.00 | 0.00 | 0.00 | 33 | 1018.0 |
| 20260905134028 | 89 | 218 | 9.0 | 20.0 | 0.00 | 0.00 | 0.00 | 33 | 1018.0 |
| 20260905133030 | 89 | 245 | 12.0 | 24.0 | 0.00 | 0.00 | 0.00 | 33 | 1018.1 |
| 20260905132512 | 89 | 247 | 13.0 | 21.0 | 0.00 | 0.00 | 0.00 | 34 | 1018.2 |
| 20260905132029 | 89 | 224 | 12.0 | 20.0 | 0.00 | 0.00 | 0.00 | 34 | 1018.2 |
| 20260905131512 | 89 | 256 | 14.0 | 26.0 | 0.00 | 0.00 | 0.00 | 34 | 1018.2 |
| 20260905130012 | 89 | 239 | 12.0 | 22.0 | 0.00 | 0.00 | 0.00 | 34 | 1018.3 |
| 20260905125028 | 89 | 231 | 11.0 | 20.0 | 0.00 | 0.00 | 0.00 | 33 | 1018.3 |
| 20260905124512 | 90 | 228 | 9.0 | 20.0 | 0.00 | 0.00 | 0.00 | 33 | 1018.5 |
| 20260905123029 | 90 | 221 | 10.0 | 18.0 | 0.00 | 0.00 | 0.00 | 32 | 1018.6 |
| 20260905122512 | 90 | 229 | 7.0 | 16.0 | 0.00 | 0.00 | 0.00 | 33 | 1018.7 |
| 20260905120512 | 90 | 332 | 4.0 | 8.0 | 0.00 | 0.00 | 0.00 | 29 | 1018.8 |
| 20260905115029 | 89 | 218 | 7.0 | 13.0 | 0.00 | 0.00 | 0.00 | 31 | 1018.9 |
| 20260905114512 | 89 | 328 | 5.0 | 13.0 | 0.00 | 0.00 | 0.00 | 31 | 1018.9 |
| 20260905114027 | 89 | 339 | 7.0 | 13.0 | 0.00 | 0.00 | 0.00 | 32 | 1018.9 |
| 20260905113512 | 89 | 354 | 6.0 | 12.0 | 0.00 | 0.00 | 0.00 | 31 | 1019.0 |
| 20260905111512 | 89 | 307 | 4.0 | 8.0 | 0.00 | 0.00 | 0.00 | 32 | 1019.1 |
| 20260905111029 | 88 | 312 | 6.0 | 12.0 | 0.00 | 0.00 | 0.00 | 32 | 1019.1 |
| 20260905110513 | 89 | 300 | 8.0 | 12.0 | 0.00 | 0.00 | 0.00 | 31 | 1019.1 |
| 20260905110013 | 90 | 330 | 5.0 | 12.0 | 0.00 | 0.00 | 0.00 | 31 | 1019.2 |
| 20260905105512 | 88 | 314 | 2.0 | 10.0 | 0.00 | 0.00 | 0.00 | 33 | 1019.1 |
| 20260905104030 | 89 | 296 | 2.0 | 6.0 | 0.00 | 0.00 | 0.00 | 32 | 1019.2 |
| 20260905103514 | 88 | 328 | 3.0 | 9.0 | 0.00 | 0.00 | 0.00 | 33 | 1019.3 |
| 20260905102029 | 88 | 315 | 6.0 | 12.0 | 0.00 | 0.00 | 0.00 | 33 | 1019.4 |
| 20260905101511 | 87 | 283 | 7.0 | 12.0 | 0.00 | 0.00 | 0.00 | 33 | 1019.4 |
| 20260905100512 | 88 | 341 | 5.0 | 9.0 | 0.00 | 0.00 | 0.00 | 34 | 1019.4 |
| 20260905100012 | 88 | 243 | 2.0 | 8.0 | 0.00 | 0.00 | 0.00 | 34 | 1019.4 |
| 20260905095027 | 87 | 257 | 6.0 | 12.0 | 0.00 | 0.00 | 0.00 | 35 | 1019.4 |
| 20260905094512 | 87 | 254 | 8.0 | 14.0 | 0.00 | 0.00 | 0.00 | 34 | 1019.4 |
| 20260905093513 | 87 | 345 | 6.0 | 9.0 | 0.00 | 0.00 | 0.00 | 35 | 1019.5 |